• In Deutschland
  • Länderverzeichnis
  • Für 7 Tage
  • Wassertemperatur
  • Satellitenkarten
  • Wetterkarte
  • Widgets
  • user-avatar
    Anmelden

    Stündliche Wetter Waldkirch

    Heute, 23 September, Sonntag

    Zeit Temperatur Niederschläge Wind Luftdruck Luftfeuchtigkeit
    00:00 +14°C° 0.1 mm 2 m/S 726 mmHg 71%
    01:00 +14°C° 0.1 mm 2 m/S 726 mmHg 75%
    02:00 +13°C° 0.2 mm 3 m/S 725 mmHg 74%
    03:00 +14°C° 0.2 mm 3 m/S 725 mmHg 73%
    04:00 +15°C° 0.2 mm 4 m/S 725 mmHg 72%
    05:00 +15°C° 0 mm 4 m/S 724 mmHg 73%
    06:00 +15°C° 0 mm 4 m/S 724 mmHg 74%
    07:00 +16°C° 0 mm 5 m/S 724 mmHg 75%
    08:00 +16°C° 0.2 mm 5 m/S 724 mmHg 77%
    09:00 +16°C° 0.2 mm 5 m/S 724 mmHg 80%
    10:00 +17°C° 0.2 mm 5 m/S 724 mmHg 82%
    11:00 +19°C° 0.2 mm 5 m/S 724 mmHg 80%
    12:00 +20°C° 0.2 mm 6 m/S 723 mmHg 77%
    13:00 +21°C° 0.2 mm 7 m/S 723 mmHg 75%
    14:00 +22°C° 0.1 mm 7 m/S 722 mmHg 72%
    15:00 +23°C° 0.1 mm 8 m/S 722 mmHg 70%
    16:00 +23°C° 0.1 mm 8 m/S 721 mmHg 67%
    17:00 +22°C° 1.3 mm 8 m/S 721 mmHg 73%
    18:00 +21°C° 1.3 mm 8 m/S 721 mmHg 79%
    19:00 +20°C° 1.3 mm 8 m/S 721 mmHg 85%
    20:00 +17°C° 2.1 mm 8 m/S 722 mmHg 86%
    21:00 +15°C° 2.1 mm 7 m/S 723 mmHg 87%
    22:00 +12°C° 2.1 mm 7 m/S 725 mmHg 89%
    23:00 +12°C° 0.1 mm 5 m/S 726 mmHg 90%

    Morgen, 24 September, Montag

    Zeit Temperatur Niederschläge Wind Luftdruck Luftfeuchtigkeit
    00:00 +11°C° 0.1 mm 4 m/S 728 mmHg 90%
    01:00 +9°C° 0.1 mm 3 m/S 729 mmHg 91%
    02:00 +9°C° 0 mm 3 m/S 730 mmHg 91%
    03:00 +9°C° 0 mm 2 m/S 731 mmHg 91%
    04:00 +9°C° 0 mm 2 m/S 732 mmHg 91%
    05:00 +8°C° 0 mm 2 m/S 732 mmHg 91%
    06:00 +8°C° 0 mm 2 m/S 733 mmHg 92%
    07:00 +7°C° 0 mm 2 m/S 733 mmHg 92%
    08:00 +8°C° 0 mm 2 m/S 734 mmHg 86%
    09:00 +9°C° 0 mm 3 m/S 734 mmHg 80%
    10:00 +10°C° 0 mm 3 m/S 735 mmHg 74%
    11:00 +11°C° 0 mm 3 m/S 735 mmHg 66%
    12:00 +13°C° 0 mm 3 m/S 735 mmHg 57%
    13:00 +14°C° 0 mm 4 m/S 735 mmHg 48%
    14:00 +14°C° 0 mm 4 m/S 735 mmHg 47%
    15:00 +14°C° 0 mm 4 m/S 735 mmHg 46%
    16:00 +14°C° 0 mm 4 m/S 735 mmHg 44%
    17:00 +12°C° 0 mm 3 m/S 735 mmHg 50%
    18:00 +10°C° 0 mm 3 m/S 735 mmHg 56%
    19:00 +9°C° 0 mm 2 m/S 735 mmHg 62%
    20:00 +8°C° 0 mm 2 m/S 735 mmHg 64%
    21:00 +7°C° 0 mm 2 m/S 735 mmHg 66%
    22:00 +7°C° 0 mm 2 m/S 736 mmHg 67%
    23:00 +6°C° 0 mm 2 m/S 736 mmHg 69%

    übermorgen, 25 September, Dienstag

    Zeit Temperatur Niederschläge Wind Luftdruck Luftfeuchtigkeit
    00:00 +6°C° 0 mm 2 m/S 736 mmHg 71%
    01:00 +6°C° 0 mm 2 m/S 736 mmHg 73%
    02:00 +6°C° 0 mm 2 m/S 736 mmHg 76%
    03:00 +5°C° 0 mm 2 m/S 735 mmHg 78%
    04:00 +5°C° 0 mm 2 m/S 735 mmHg 81%
    05:00 +4°C° 0 mm 3 m/S 735 mmHg 81%
    06:00 +4°C° 0 mm 3 m/S 736 mmHg 81%
    07:00 +4°C° 0 mm 3 m/S 736 mmHg 82%
    08:00 +6°C° 0 mm 4 m/S 736 mmHg 72%
    09:00 +8°C° 0 mm 4 m/S 736 mmHg 63%
    10:00 +10°C° 0 mm 5 m/S 736 mmHg 54%
    11:00 +12°C° 0 mm 5 m/S 736 mmHg 50%
    12:00 +14°C° 0 mm 5 m/S 735 mmHg 47%
    13:00 +15°C° 0 mm 5 m/S 735 mmHg 44%
    14:00 +15°C° 0 mm 5 m/S 735 mmHg 45%
    15:00 +14°C° 0 mm 5 m/S 735 mmHg 45%
    16:00 +14°C° 0 mm 4 m/S 734 mmHg 46%
    17:00 +12°C° 0 mm 4 m/S 734 mmHg 52%
    18:00 +10°C° 0 mm 3 m/S 734 mmHg 59%
    19:00 +8°C° 0 mm 3 m/S 734 mmHg 65%
    20:00 +7°C° 0 mm 3 m/S 734 mmHg 68%
    21:00 +7°C° 0 mm 2 m/S 734 mmHg 71%
    22:00 +6°C° 0 mm 2 m/S 734 mmHg 74%
    23:00 +5°C° 0 mm 2 m/S 734 mmHg 76%

    26 September, Mittwoch

    Zeit Temperatur Niederschläge Wind Luftdruck Luftfeuchtigkeit
    00:00 +6°C° 0 mm 1 m/S 734 mmHg 77%
    01:00 +5°C° 0 mm 1 m/S 734 mmHg 79%
    02:00 +5°C° 0 mm 1 m/S 734 mmHg 79%
    03:00 +5°C° 0 mm 1 m/S 734 mmHg 79%
    04:00 +5°C° 0 mm 1 m/S 734 mmHg 79%
    05:00 +5°C° 0 mm 1 m/S 734 mmHg 78%
    06:00 +5°C° 0 mm 1 m/S 734 mmHg 76%
    07:00 +6°C° 0 mm 1 m/S 734 mmHg 75%
    08:00 +9°C° 0 mm 1 m/S 734 mmHg 67%
    09:00 +13°C° 0 mm 1 m/S 734 mmHg 58%
    10:00 +16°C° 0 mm 1 m/S 734 mmHg 50%
    11:00 +19°C° 0 mm 1 m/S 734 mmHg 46%
    12:00 +20°C° 0 mm 1 m/S 734 mmHg 42%
    13:00 +22°C° 0 mm 1 m/S 734 mmHg 39%
    14:00 +22°C° 0 mm 1 m/S 734 mmHg 39%
    15:00 +22°C° 0 mm 1 m/S 734 mmHg 40%
    16:00 +22°C° 0 mm 1 m/S 734 mmHg 40%
    17:00 +17°C° 0 mm 0 m/S 733 mmHg 48%
    18:00 +15°C° 0 mm 0 m/S 733 mmHg 55%
    19:00 +12°C° 0 mm 0 m/S 733 mmHg 63%
    20:00 +12°C° 0 mm 0 m/S 733 mmHg 65%
    21:00 +11°C° 0 mm 0 m/S 733 mmHg 66%
    22:00 +10°C° 0 mm 0 m/S 734 mmHg 68%
    23:00 +11°C° 0 mm 1 m/S 733 mmHg 69%

    27 September, Donnerstag

    Zeit Temperatur Niederschläge Wind Luftdruck Luftfeuchtigkeit
    00:00 +11°C° 0 mm 1 m/S 733 mmHg 70%
    01:00 +11°C° 0 mm 1 m/S 733 mmHg 70%
    02:00 +11°C° 0 mm 1 m/S 733 mmHg 71%
    03:00 +10°C° 0 mm 1 m/S 733 mmHg 71%
    04:00 +10°C° 0 mm 1 m/S 733 mmHg 72%
    05:00 +10°C° 0 mm 1 m/S 733 mmHg 73%
    06:00 +11°C° 0 mm 1 m/S 733 mmHg 74%
    07:00 +11°C° 0 mm 1 m/S 733 mmHg 74%
    08:00 +14°C° 0 mm 1 m/S 733 mmHg 67%
    09:00 +18°C° 0 mm 1 m/S 733 mmHg 59%
    10:00 +21°C° 0 mm 1 m/S 733 mmHg 51%
    11:00 +22°C° 0 mm 1 m/S 733 mmHg 48%
    12:00 +23°C° 0 mm 1 m/S 732 mmHg 44%
    13:00 +25°C° 0 mm 1 m/S 732 mmHg 41%
    14:00 +25°C° 0 mm 1 m/S 732 mmHg 42%
    15:00 +24°C° 0 mm 1 m/S 731 mmHg 43%
    16:00 +24°C° 0 mm 1 m/S 731 mmHg 44%
    17:00 +22°C° 0 mm 1 m/S 730 mmHg 53%
    18:00 +19°C° 0 mm 1 m/S 730 mmHg 61%
    19:00 +15°C° 0 mm 1 m/S 730 mmHg 69%
    20:00 +15°C° 0 mm 1 m/S 730 mmHg 71%
    21:00 +13°C° 0 mm 0 m/S 730 mmHg 73%
    22:00 +12°C° 0 mm 0 m/S 730 mmHg 74%
    23:00 +12°C° 0 mm 0 m/S 729 mmHg 75%

    28 September, Freitag

    Zeit Temperatur Niederschläge Wind Luftdruck Luftfeuchtigkeit
    00:00 +12°C° 0 mm 0 m/S 729 mmHg 76%
    01:00 +12°C° 0 mm 1 m/S 729 mmHg 77%
    02:00 +11°C° 0 mm 0 m/S 728 mmHg 79%
    03:00 +11°C° 0 mm 0 m/S 728 mmHg 80%
    04:00 +11°C° 0 mm 0 m/S 728 mmHg 81%
    05:00 +10°C° 0 mm 0 m/S 728 mmHg 81%
    06:00 +10°C° 0 mm 0 m/S 728 mmHg 81%
    07:00 +10°C° 0 mm 0 m/S 728 mmHg 81%
    08:00 +14°C° 0 mm 1 m/S 728 mmHg 72%
    09:00 +18°C° 0 mm 1 m/S 728 mmHg 64%
    10:00 +20°C° 0 mm 1 m/S 728 mmHg 55%
    11:00 +21°C° 0 mm 1 m/S 728 mmHg 52%
    12:00 +22°C° 0 mm 1 m/S 728 mmHg 48%
    13:00 +23°C° 0 mm 1 m/S 727 mmHg 45%
    14:00 +23°C° 0 mm 2 m/S 727 mmHg 46%
    15:00 +23°C° 0 mm 2 m/S 727 mmHg 47%
    16:00 +21°C° 0 mm 2 m/S 726 mmHg 48%
    17:00 +19°C° 0 mm 2 m/S 726 mmHg 56%
    18:00 +17°C° 0 mm 2 m/S 726 mmHg 63%
    19:00 +14°C° 0 mm 1 m/S 726 mmHg 71%
    20:00 +14°C° 0 mm 1 m/S 726 mmHg 73%
    21:00 +13°C° 0 mm 1 m/S 727 mmHg 76%
    22:00 +12°C° 0 mm 1 m/S 727 mmHg 78%
    23:00 +12°C° 0 mm 1 m/S 726 mmHg 80%
    Mehr zeigen